Flag for Germany Weather past 2 weeks in Buchholz in der Nordheide, Lower Saxony, Germany

Now
61 °F

Clear.


Feels Like: 61 °F
Forecast: 56 / 71 °F
Wind: 7 mph from East

Location: Hamburg-Finkenwerder

Current Time: Sep 16, 2014 at 7:25:30 AM

Latest Report: Sep 16, 2014 at 6:50 AM


Visibility: 10 mi

Pressure: 30.09 "Hg

Humidity: 83%

Dew point: 55 °F

Location of Buchholz in der NordheideLocation

Historic Weather in Buchholz in der Nordheide — Graph

°F

Buchholz in der Nordheide temperature yesterday

Maximum temperature yesterday: 75 °F (at 2:50 PM)
Minimum temperature yesterday: 61 °F (at 5:20 AM)
Average temperature yesterday: 68 °F

Past Weeks' High & Low Weather Summary

 TemperatureHumidityPressure
High79 °F (Sep 5, 3:50 PM)100% (Sep 1, 6:20 AM)30.33 "Hg (Sep 1, 6:20 AM)
Low54 °F (Sep 3, 5:50 AM)41% (Sep 4, 4:50 PM)29.89 "Hg (Sep 6, 9:20 AM)
Average65 °F76%30.10 "Hg
* Reported Sep 1 6:20 AM — Sep 16 6:20 AM, Buchholz in der Nordheide, Weather by CustomWeather, © 2014

Note: Actual official high and low records may vary slightly from our data, if they occured in-between our weather recording intervals... More about our weather records

Advertising

Buchholz in der Nordheide weather history for previous 24 hours

 ConditionsComfort  
Time TempWeatherWind HumidityBarometerVisibility
6:20 AM
Sep 16
61 °FPassing clouds.6 mph88%30.09 "HgN/A
5:50 AM61 °FPassing clouds.8 mph88%30.07 "HgN/A
7:20 PM
Sep 15
73 °FPassing clouds.9 mph57%30.04 "HgN/A
6:50 PM73 °FPassing clouds.8 mph57%30.04 "HgN/A
6:20 PM75 °FPassing clouds.8 mph54%30.04 "HgN/A
5:50 PM75 °FPassing clouds.12 mph54%30.04 "HgN/A
5:20 PM75 °FPassing clouds.8 mph54%30.07 "HgN/A
4:20 PM75 °FPassing clouds.9 mph57%30.07 "HgN/A
3:50 PM75 °FPassing clouds.10 mph61%30.07 "HgN/A
3:20 PM75 °FPassing clouds.9 mph61%30.07 "HgN/A
2:50 PM75 °FPassing clouds.10 mph65%30.07 "HgN/A
2:20 PM73 °FPassing clouds.9 mph69%30.09 "HgN/A
1:50 PM72 °FPassing clouds.8 mph73%30.09 "HgN/A
1:20 PM72 °FPassing clouds.9 mph73%30.09 "HgN/A
12:50 PM70 °FPassing clouds.9 mph78%30.09 "HgN/A
12:20 PM68 °FPassing clouds.8 mph78%30.09 "HgN/A
11:50 AM68 °FScattered clouds.9 mph78%30.09 "Hg6 mi
11:20 AM66 °FPassing clouds.9 mph83%30.09 "Hg6 mi
10:50 AM64 °FScattered clouds.9 mph83%30.09 "Hg6 mi
10:20 AM64 °FPartly sunny.8 mph88%30.09 "Hg5 mi
9:50 AM64 °FScattered clouds.7 mph88%30.09 "Hg5 mi
9:20 AM63 °FPassing clouds.9 mph94%30.09 "Hg5 mi
8:50 AM63 °FScattered clouds.8 mph94%30.09 "Hg4 mi
8:20 AM63 °FScattered clouds.7 mph94%30.09 "Hg4 mi
7:50 AM61 °FPassing clouds.7 mph100%30.09 "Hg4 mi
7:20 AM61 °FPassing clouds.7 mph100%30.09 "Hg4 mi
Weather by CustomWeather, © 2014

See weather overviewHow to use our weather pages